Date String (YYYY-MM-DD hh:mm:ss) UTC,Instrument flags,Ambient pressure (hPa),Sample flow (lpm),Bypass flow (lpm),Sample temperature (°C),Ambient temperature (°C),ASC tube jacket temperature (°C),LED temperature (°C),Box temperature (°C),Sample RH (%),Span deviation,Mass concentration (μg/m³),Mass concentration (μg/m³),Mass concentration (μg/m³)
DateTimeUTC,F1_M11,P_M11,Q1_M11,Q2_M11,T1_M11,T2_M11,T3_M11,T4_M11,T5_M11,U1_M11,ZSPAN_M11,X0_M11,X2_M11,X1_M11
2022-01-06 16:00:00,,0825.4,5.02,0.00,21.8,20.8,00.0,30.9,23.3,04.8,0002.4,0009.57,0005.76,0005.14
2022-01-06 16:01:00,,0825.4,4.99,0.00,21.7,20.5,00.0,30.9,23.1,04.8,0001.9,0009.88,0005.77,0005.14
2022-01-06 16:02:00,,0825.4,5.00,0.00,21.7,21.0,00.0,30.8,23.1,04.8,0001.7,0009.94,0005.80,0005.15
2022-01-06 16:03:00,,0825.4,5.01,0.00,21.8,21.9,00.0,30.9,23.4,04.8,0001.5,0009.99,0005.83,0005.18
2022-01-06 16:04:00,,0825.5,5.01,0.00,21.9,22.7,00.0,30.9,23.8,04.8,0001.6,0010.01,0005.86,0005.20
2022-01-06 16:05:00,,0825.5,5.00,0.00,22.0,22.5,00.0,30.9,23.9,04.8,0001.7,0010.18,0005.92,0005.22
2022-01-06 16:06:00,,0825.6,4.99,0.00,22.0,22.1,00.0,30.9,23.8,04.8,0002.0,0010.23,0005.94,0005.22
2022-01-06 16:07:00,,0825.4,5.00,0.00,22.0,21.6,00.0,30.9,23.6,04.8,0002.0,0010.18,0005.93,0005.22
2022-01-06 16:08:00,,0825.3,5.00,0.00,21.9,21.0,00.0,30.9,23.4,04.8,0001.8,0010.15,0005.93,0005.22
2022-01-06 16:09:00,,0825.2,4.99,0.00,21.7,20.5,00.0,30.9,23.2,04.8,0002.5,0010.15,0005.93,0005.21
2022-01-06 16:10:00,,0825.5,5.00,0.00,21.6,20.2,00.0,30.8,23.0,04.8,0002.4,0010.13,0005.92,0005.20
2022-01-06 16:11:00,,0825.6,5.01,0.00,21.6,20.7,00.0,30.8,23.1,04.8,0002.3,0010.25,0005.91,0005.22
2022-01-06 16:12:00,,0825.6,5.00,0.00,21.7,21.8,00.0,30.8,23.4,04.8,0002.4,0009.95,0005.90,0005.22
2022-01-06 16:13:00,,0825.5,4.99,0.00,21.9,22.7,00.0,30.9,23.7,04.8,0002.3,0009.93,0005.89,0005.21
2022-01-06 16:14:00,,0825.5,4.99,0.00,22.0,22.5,00.0,30.9,23.8,04.8,0002.0,0009.93,0005.88,0005.19
2022-01-06 16:15:00,,0825.6,5.01,0.00,21.9,22.1,00.0,30.9,23.7,04.8,0001.8,0010.02,0005.85,0005.16
2022-01-06 16:16:00,,0825.6,5.00,0.00,21.9,21.7,00.0,30.9,23.6,04.9,0001.1,0010.48,0005.83,0005.13
2022-01-06 16:17:00,,0825.5,4.99,0.00,21.9,21.4,00.0,30.9,23.5,04.9,0000.6,0010.51,0005.84,0005.11
2022-01-06 16:18:00,,0825.4,5.01,0.00,21.8,21.2,00.0,30.8,23.4,04.9,0001.3,0010.59,0005.86,0005.11
2022-01-06 16:19:00,,0825.4,5.00,0.00,21.7,20.8,00.0,30.8,23.2,04.9,0001.6,0010.59,0005.86,0005.12
2022-01-06 16:20:00,,0825.4,4.99,0.00,21.7,20.7,00.0,30.8,23.1,04.9,0001.3,0010.48,0005.81,0005.13
2022-01-06 16:21:00,,0825.4,4.99,0.00,21.7,21.5,00.0,30.8,23.3,04.8,0001.1,0010.46,0005.80,0005.12
2022-01-06 16:22:00,,0825.4,4.99,0.00,21.9,22.4,00.0,30.9,23.6,04.8,0001.4,0010.26,0005.80,0005.12
2022-01-06 16:23:00,,0825.5,5.02,0.00,22.0,22.9,00.0,30.9,23.9,04.7,0001.9,0010.25,0005.80,0005.12
2022-01-06 16:24:00,,0825.4,4.99,0.00,22.0,22.4,00.0,30.9,23.8,04.7,0002.4,0010.18,0005.76,0005.09
2022-01-06 16:25:00,,0825.5,5.01,0.00,22.0,21.9,00.0,30.9,23.7,04.7,0002.7,0010.13,0005.74,0005.07
2022-01-06 16:26:00,,0825.5,5.00,0.00,22.0,21.5,00.0,30.9,23.6,04.8,0002.4,0010.01,0005.73,0005.06
2022-01-06 16:27:00,,0825.5,5.01,0.00,21.9,21.1,00.0,30.9,23.5,04.8,0002.4,0009.46,0005.70,0005.05
2022-01-06 16:28:00,,0825.4,5.00,0.00,21.8,20.9,00.0,30.9,23.4,04.8,0002.2,0009.49,0005.68,0005.04
2022-01-06 16:29:00,,0825.3,4.99,0.00,21.8,20.7,00.0,30.8,23.3,04.8,0001.8,0009.40,0005.63,0005.01
2022-01-06 16:30:00,,0825.4,5.00,0.00,21.7,20.7,00.0,30.8,23.2,04.8,0002.0,0009.40,0005.58,0004.97
2022-01-06 16:31:00,,0825.4,5.00,0.00,21.8,21.4,00.0,30.8,23.4,04.8,0002.1,0009.43,0005.57,0004.94
2022-01-06 16:32:00,,0825.3,5.00,0.00,21.9,22.3,00.0,30.9,23.7,04.7,0002.2,0009.40,0005.56,0004.92
2022-01-06 16:33:00,,0825.5,4.99,0.00,22.1,22.9,00.0,30.9,23.9,04.7,0002.3,0009.43,0005.55,0004.89
2022-01-06 16:34:00,,0825.5,5.00,0.00,22.1,22.7,00.0,31.0,23.9,04.7,0001.9,0009.46,0005.54,0004.87
2022-01-06 16:35:00,,0825.6,5.01,0.00,22.1,22.3,00.0,31.0,23.9,04.6,0001.8,0009.50,0005.55,0004.89
2022-01-06 16:36:00,,0825.5,5.01,0.00,22.1,22.0,00.0,31.0,23.8,04.7,0002.1,0009.50,0005.55,0004.89
2022-01-06 16:37:00,,0825.4,4.99,0.00,22.0,21.7,00.0,31.0,23.7,04.7,0002.6,0009.52,0005.56,0004.91
2022-01-06 16:38:00,,0825.4,5.02,0.00,22.0,21.5,00.0,31.0,23.6,04.7,0002.9,0009.52,0005.57,0004.93
2022-01-06 16:39:00,,0825.4,5.01,0.00,22.0,21.3,00.0,31.0,23.5,04.7,0002.9,0009.44,0005.59,0004.94
2022-01-06 16:40:00,,0825.5,4.98,0.00,21.9,21.2,00.0,30.9,23.5,04.7,0002.8,0009.43,0005.59,0004.94
2022-01-06 16:41:00,,0825.6,5.00,0.00,21.9,21.7,00.0,31.0,23.6,04.8,0002.1,0009.33,0005.59,0004.94
2022-01-06 16:42:00,,0825.7,5.01,0.00,22.1,22.6,00.0,31.0,23.9,04.7,0002.1,0009.36,0005.61,0004.94
2022-01-06 16:43:00,,0825.6,5.01,0.00,22.2,23.2,00.0,31.1,24.2,04.7,0002.0,0009.46,0005.64,0004.97
2022-01-06 16:44:00,,0825.6,5.01,0.00,22.3,23.0,00.0,31.1,24.2,04.7,0001.6,0009.49,0005.65,0004.99
2022-01-06 16:45:00,,0825.6,5.01,0.00,22.3,22.7,00.0,31.1,24.2,04.8,0001.6,0009.51,0005.66,0005.00
2022-01-06 16:46:00,,0825.5,4.99,0.00,22.3,22.3,00.0,31.1,24.1,04.8,0001.2,0009.55,0005.66,0005.00
2022-01-06 16:47:00,,0825.6,5.00,0.00,22.3,22.0,00.0,31.1,24.0,04.9,0000.5,0009.61,0005.68,0005.02
2022-01-06 16:48:00,,0825.7,4.99,0.00,22.2,21.7,00.0,31.1,23.9,05.0,0001.0,0009.72,0005.68,0005.02
2022-01-06 16:49:00,,0825.6,5.00,0.00,22.2,21.6,00.0,31.1,23.8,05.0,0001.5,0010.04,0005.71,0005.03
2022-01-06 16:50:00,,0825.6,5.01,0.00,22.1,21.4,00.0,31.1,23.8,05.1,0001.6,0010.16,0005.70,0005.03
2022-01-06 16:51:00,,0825.5,5.00,0.00,22.1,21.3,00.0,31.1,23.6,05.1,0001.7,0010.25,0005.74,0005.04
2022-01-06 16:52:00,,0825.4,4.99,0.00,22.0,21.3,00.0,31.1,23.5,05.0,0002.1,0010.32,0005.77,0005.05
2022-01-06 16:53:00,,0825.4,5.00,0.00,22.1,22.0,00.0,31.1,23.7,05.0,0001.9,0010.40,0005.81,0005.08
2022-01-06 16:54:00,,0825.3,4.99,0.00,22.2,22.9,00.0,31.2,24.1,04.9,0001.9,0010.29,0005.78,0005.08
2022-01-06 16:55:00,,0825.3,5.01,0.00,22.4,23.4,00.0,31.2,24.2,04.9,0002.0,0010.25,0005.78,0005.08
2022-01-06 16:56:00,,0825.3,5.01,0.00,22.4,23.1,00.0,31.2,24.2,04.9,0002.0,0010.18,0005.77,0005.08
2022-01-06 16:57:00,,0825.2,5.00,0.00,22.4,22.7,00.0,31.2,24.2,04.9,0001.9,0010.14,0005.78,0005.07
2022-01-06 16:58:00,,0825.3,5.01,0.00,22.3,22.4,00.0,31.2,24.0,04.9,0002.1,0010.20,0005.81,0005.09
2022-01-06 16:59:00,,0825.4,4.99,0.00,22.3,22.0,00.0,31.2,23.8,04.8,0002.0,0010.21,0005.83,0005.09
